FENGYUN 1C DEB

Satellite information

Favourite Embed

Satellite Type and Status

DEBRISIN ORBIT

Key statistics

Satellite FENGYUN 1C DEB at a glance.

Uptime

9498

Days in orbit

Revolutions

≈ 14.4

Per day

Orbit

SSO

Sun Synchronous Orbit

Inclination

99.3

Latest

Satellite identification and parameters

Extended collection of information and parameters for FENGYUN 1C DEB.

Object identification

Identified? True

Debris? True

Object name: FENGYUN 1C DEB

International designator: 1999-025ASJ

Object number (NORAD): 30724

Object ID (CCSDS): 30724

Country: PEOPLES REPUBLIC OF CHINA (PRC)

Current information (Y/N): Y

RCS size: SMALL

Orbital parameters

Period: 100.248 minutes

Inclination: 99.3089 deg

SMA: 7148.432 km

Apoapsis: 838.164 km

Periapsis: 702.43 km

RAAN: 297.8113 deg

Eccentricy: 0.009494

Argument of periapsis: 167.3101 deg

Mean anomaly: 208.3213 deg

Mean motion: 14.36437014 rev/day

Mean motion (dot): 0.0000165 rev/day2

B* drag term: 0.00055142 1/REarth

Two-line elements (TLE)

Creation date: May 11, 2025, 2:40 a.m.

Reference frame: TEME

Reference center: EARTH

Epoch: May 10, 2025, 5:25 p.m. UTC

TLE line 0: 0 FENGYUN 1C DEB

TLE line 1: 1 30724U 99025ASJ 25130.72621495 .00001650 00000-0 55142-3 0 9990

TLE line 2: 2 30724 99.3089 297.8113 0094940 167.3101 208.3213 14.36437014953517

Live tracking on map

Real-time ground track for satellite FENGYUN 1C DEB.

In-orbit conjunctions

A list of the most updated potential collisions computed for object FENGYUN 1C DEB.

Target Orbit TCA Probability of collision Miss distance Type
CZ-6A DEB LEO 2025-01-03 05:34:24 0.000476727 151.0 (m) DEBRIS

Associated space launch

Chinese polar orbiting meteorological satellite

FENGYUN 1C DEB was lifted into orbit during the mission ‘Long March 4B | Feng Yun 1C’, on board a Long March 4B space rocket.

The launch took place on May 10, 1999, 1:33 a.m. from Launch Complex 7.

For more information about the launch, click the button.

Launch to space Long March 4B | Feng Yun 1C
Long March 4B | Feng Yun 1C

Agency: N/A

Status: Launch Successful

Launch date: May 10, 1999, 1:33 a.m. UTC

Rocket: Long March 4B

Launch pad: Launch Complex 7

Location: Taiyuan Satellite Launch Center, People's Republic of China

...

Latest news about this satellite

There are no fresh news available about this satellite. Check back as we update our databases every day.


Newsletter sign-up

Weekly statistics, charts and insights to help you stay on top of the space industry.